Find Starlink 31640

NORAD ID: 59748 Int'l Des: 2024-090 Owner: SPXS Country: US Constellation: starlink operational
LEOCIRCULAR

当前视图

正在加载3D地球...

About Starlink 31640

Starlink 31640 (NORAD 59748) is a starlink constellation satellite (v2 mini) launched May 13, 2024 by SPXS of US. It operates in LEO, CIRCULAR orbit with a mass of 730.00 kg.

关于 Starlink 31640

正在加载描述...

即将过境

Passes for default location (London). Set your location on the main map for personalized predictions.

高度历史

Loading altitude history...

两行轨道根数

1 59748U 24090U 26169.73828536 .00000129 00000-0 14208-4 0 9995
2 59748 43.0006 332.8738 0001228 273.3706 86.7005 15.27579722118893
Epoch: Jun 18, 2026 • Age: 11 hours

当前状态

高度 491.6 km
速度 7.62 km/s
星下点 -33.14°S, 48.3°W
发射日期 May 13, 2024
运行时间 2 years
类型 internet

技术详情

分类 Payload
质量 730.00 kg
干质量 700.00 kg
总质量 730.00 kg
长度 0.30 m
直径 4.10 m
跨度 29.00 m
形状 Box + pan
制造商 SPXS
平台类型 Starlink V2M
阶段状态 In Orbit
所有者/国家 SPXS/US

Most Searched